Regional Weather Roundup
Issued by NWS

Home | Current Version | Previous Version | Graphics & Text | Print | Product List | Glossary On
Versions: 1 2 3 4 5 6 7 8 9 10 11 12 13 14 15 16 17 18 19 20 21 22 23 24 25 26 27 28 29 30 31 32 33 34 35 36 37 38 39 40 41 42 43 44 45 46 47 48 49 50
679
ASUS43 KIND 210209
RWRIN

WEATHER ROUNDUP FOR INDIANA
NATIONAL WEATHER SERVICE INDIANAPOLIS IN
900 PM EST TUE FEB 20 2018

NOTE: "FAIR" INDICATES FEW OR NO CLOUDS BELOW 12,000 FEET WITH NO
SIGNIFICANT WEATHER AND/OR OBSTRUCTIONS TO VISIBILITY.

* - STATION DOES NOT REPORT WEATHER SUCH AS PRECIPITATION OR FOG.

+ - STATION NOT QUALITY CONTROLLED BY THE NATIONAL WEATHER SERVICE.
    USE DATA WITH CAUTION...ESPECIALLY DEWPOINT AND RELATIVE
    HUMIDITY OBSERVATIONS.

INZ001>003-010>013-019-020-210300-
NORTHWEST INDIANA

CITY           SKY/WX    TMP DP  RH WIND       PRES   REMARKS
GARY /AIRPORT/ LGT RAIN  43  43 100 NW9       30.05S
LA PORTE +     RAIN      46  45  96 NW15G21   30.06R
MICHIGAN CITY+ RAIN      37  37 100 NW3       30.09R
MONTICELLO +   RAIN      56  55  95 W6        30.04R
RENSSELAER +   RAIN      46  43  87 NW7       30.06R
VALPARAISO     RAIN      51  49  92 NW9       30.05R FOG

$$

LMZ046-743>745-210300-
SOUTHERN LAKE MICHIGAN

STATION/POSITION TIME  TEMP    WIND        PRES    WAVE
                       AIR SEA DIR/SP/G            HT
                 (UTC) (F)     (DEG/KT/KT) (MB)    (FT)
MICHIGAN CITY    0140   37     300/ 10/ 11   N/A

$$

INZ004-005-014>016-021>024-210300-
NORTH CENTRAL INDIANA

CITY           SKY/WX    TMP DP  RH WIND       PRES   REMARKS
ELKHART        RAIN      55  54  94 S6        30.02R
GOSHEN         RAIN      56  55  97 S15       30.03R FOG
LOGANSPORT +   LGT RAIN  54  54 100 CALM      30.07R
PERU/GRISSOM   LGT RAIN  57  57 100 NW7       30.05F
ROCHESTER +    LGT RAIN  57 N/A N/A S6        30.05R
SOUTH BEND     HVY RAIN  55  54  96 W10       30.04R FOG
WARSAW +       LGT RAIN  54  54 100 CALM      30.04R

$$

INZ006>009-017-018-025>027-210300-
NORTHEAST INDIANA

CITY           SKY/WX    TMP DP  RH WIND       PRES   REMARKS
AUBURN +       LGT RAIN  55  54  94 CALM      30.04F
FORT WAYNE     CLOUDY    59  56  89 CALM      30.05S
HUNTINGTON +   CLOUDY    58  56  94 CALM      30.05S
KENDALLVILLE + CLOUDY    54  54 100 CALM      30.04S

$$

INZ028-029-035-036-043>045-051>053-210300-
WEST CENTRAL INDIANA

CITY           SKY/WX    TMP DP  RH WIND       PRES   REMARKS
CRAWFORDSVL +  CLOUDY    65  56  74 W13G20    30.04R
GREENCASTLE +  FAIR      68  52  56 S14       30.04S
LAFAYETTE      LGT RAIN  56  56 100 CALM      30.04R
TERRE HAUTE    FAIR      68  56  65 S17G25    30.02S

$$

INZ030>032-037>040-046>048-054>057-064-065-210300-
CENTRAL INDIANA

CITY           SKY/WX    TMP DP  RH WIND       PRES   REMARKS
COLUMBUS       MOCLDY    68  50  52 S14G21    30.09S
FISHERS *+     FAIR      68  57  68 S15G22    30.04S
FRANKFORT +    CLOUDY    61  57  87 N7        30.07R
GREENWOOD *+   FAIR      68 -29   2 SW12G21   30.07R
INDIANAPOLIS   CLOUDY    69  54  58 S18       30.04S
-EAGLE CREEK   FAIR      71  54  54 S10G20    30.03S
KOKOMO +       CLOUDY    58  55  90 NW8       30.06R
MARION +       CLOUDY    60  55  83 CALM      30.06R FOG
MT COMFORT *+  FAIR      68  57  68 S15G24    30.06S
SHELBYVILLE    FAIR      70  54  56 S16       30.07R
ZIONSVILLE +   FAIR      68  55  62 S17G24    30.04S

$$

INZ033-034-041-042-049-050-058-059-210300-
EAST CENTRAL INDIANA

CITY           SKY/WX    TMP DP  RH WIND       PRES   REMARKS
MUNCIE         FAIR      70  55  59 S16G23    30.04R
RICHMOND +     FAIR      64  55  72 SW22      30.11S

$$

INZ060-061-067>069-081>083-085>088-210300-
SOUTHWEST INDIANA

CITY           SKY/WX    TMP DP  RH WIND       PRES   REMARKS
EVANSVILLE     CLOUDY    70  59  68 S9        30.07F
HUNTINGBURG +  CLOUDY    69  59  70 S12       30.09F
WASHINGTON +   MOCLDY    67  56  67 S10       30.05F

$$

INZ062-063-066-070>080-084-089>092-210300-
SOUTH CENTRAL AND SOUTHEAST INDIANA

CITY           SKY/WX    TMP DP  RH WIND       PRES   REMARKS
BATESVILLE +   PTCLDY    70  55  60 MISG      30.11S
BEDFORD +      CLOUDY    70  55  60 S13G23    30.08F
BLOOMINGTON    MOCLDY    70  57  63 S15G24    30.07S
FRENCH LICK *+ CLOUDY    70  52  52 S10G16    30.10S
MADISON *+     CLOUDY    68  54  60 S7        30.14S
NORTH VERNON + FAIR      68  55  64 S9        30.11S
SEYMOUR +      FAIR      68  55  64 S8        30.10S

$$





USA.gov is the U.S. government's official web portal to all federal, state and local government web resources and services.